User: anonymous   Login
Location: Bailleul
(50.3375°N, 2.8513°E)
Time: 00:21:20
(UTC+00:00)
Language:

Meteor 2-5 Rocket - Orbit

View from above orbital plane
View from above orbital plane
View from above satellite
View from above satellite

Ground track
Ground track

The orbit data is extracted from the following two-line orbital elements,

1 11608U 79095B   21268.11256710  .00000103  00000-0  53929-4 0  9994
2 11608  81.2129 136.1951 0055411  97.4931 263.2538 14.06180765149209
Epoch (UTC): 25 September 2021 02:42:05
Eccentricity: 0.0055411
inclination: 81.2129°
perigee height: 832 km
apogee height: 912 km
right ascension of ascending node: 136.1951°
argument of perigee: 97.4931°
revolutions per day: 14.06180765
mean anomaly at epoch: 263.2538°
orbit number at epoch: 14920

The dashed part of the orbit path shows where the satellite is in the earth's shadow,  

DLR